sat.trackr.live / text

‹ back to catalog

STARLINK-31225

NORAD 59040 · 2024-038T

PAYLOAD ACTIVE UNKNOWN

§ Identity

Operator
Country
US
Launch date
2024-02-25
Launch site
AFETR
Launch vehicle
Mass (kg)
RCS (m²)

Purposes: comms

External: N2YO · Heavens-Above · Gunter

§ Orbital elements

Epoch: 2026-09-19T13:51:30.994848Z

Period
94.27 min
Inclination
43.0054°
Eccentricity
0.0000950
Mean motion
15.27580155 rev/d
Perigee alt
482.4 km
Apogee alt
483.7 km
Semi-major
6,861.2 km
B*
3.2195e-5
RAAN
8.3136°
Arg perigee
254.8487°
Mean anomaly
105.2260°
Rev number
14,434

§ Raw data

STARLINK-312251 59040U 24038T   26262.57744207  .00000624  00000+0  32195-4 0  99942 59040  43.0054   8.3136 0000950 254.8487 105.2260 15.27580155144340

JSON: /api/v1/satellites/59040 · /tle

For live sub-satellite position, see the globe view (requires WebGL).

§ Visibility from observer

Set your observer location to see the next 7 days of passes ≥ 10°. The values pass through the URL so the page stays shareable.

No JS? Fill the form by hand. The geolocation button needs JavaScript.